W2JV-2 Weather Reports


Display with metric or nautical units.
time (UTC)temp
F
wind
direction
speed
MPH
gust
MPH
rain 1hr
in
rain 24hr
in
rain mn
in
humidity
%
barometer
mb
20260510024003 55 201 0.0 0.0 0.00 0.19 0.19 91 1010.8
20260510023503 55 201 0.0 0.0 0.00 0.19 0.19 91 1010.8
20260510023004 55 201 0.0 0.0 0.00 0.19 0.19 91 1010.8
20260510022503 55 201 0.0 1.0 0.00 0.19 0.19 91 1010.8
20260510022003 55 192 1.0 1.0 0.00 0.19 0.19 91 1010.8
20260510021502 55 167 0.0 2.0 0.00 0.19 0.19 91 1010.8
20260510021004 55 201 0.0 3.0 0.00 0.19 0.19 91 1010.8
20260510020503 55 177 0.0 2.0 0.00 0.19 0.19 91 1010.8
20260510020002 55 160 0.0 2.0 0.00 0.19 0.19 91 1010.8
20260510015504 55 213 0.0 2.0 0.00 0.19 0.19 91 1010.8
20260510015003 55 149 1.0 3.0 0.00 0.19 0.19 90 1010.7
20260510014503 55 242 0.0 3.0 0.00 0.19 0.19 90 1010.8
20260510014004 55 167 0.0 3.0 0.00 0.19 0.19 90 1010.7
20260510013503 55 192 0.0 3.0 0.00 0.19 0.19 90 1010.7
20260510013003 55 190 0.0 0.0 0.00 0.19 0.19 90 1010.7
20260510012504 54 168 0.0 0.0 0.00 0.19 0.19 90 1010.6
20260510012004 54 168 0.0 0.0 0.00 0.19 0.19 90 1010.7
20260510011503 55 167 0.0 0.0 0.00 0.19 0.19 90 1010.6
20260510010503 55 192 0.0 0.0 0.00 0.19 0.19 90 1010.5
20260510010004 55 182 0.0 0.0 0.00 0.19 0.19 90 1010.6
20260510005503 55 231 0.0 0.0 0.00 0.19 0.19 90 1010.5
20260510005003 55 156 0.0 0.0 0.00 0.19 0.19 90 1010.5
20260510004503 55 182 0.0 0.0 0.00 0.19 0.19 90 1010.4
20260510003502 56 182 0.0 0.0 0.00 0.19 0.19 90 1010.3
20260510003003 56 182 0.0 0.0 0.01 0.19 0.19 90 1010.4
20260510001503 56 154 0.0 2.0 0.03 0.19 0.19 90 1010.1
20260510001003 56 124 0.0 0.0 0.04 0.19 0.19 90 1010.1
20260510000003 56 115 0.0 0.0 0.07 0.19 0.19 90 1010.1
20260509235503 56 115 0.0 0.0 0.08 0.19 0.19 90 1010.1
20260509235004 56 115 0.0 1.0 0.09 0.19 0.19 90 1010.1
20260509234003 56 115 0.0 2.0 0.09 0.19 0.19 90 1010.1
20260509233503 56 194 1.0 3.0 0.10 0.19 0.19 90 1010.2
20260509232003 56 207 0.0 2.0 0.08 0.17 0.17 89 1010.6
20260509231503 56 190 1.0 3.0 0.07 0.16 0.16 89 1010.5
20260509231004 56 160 1.0 2.0 0.06 0.15 0.15 89 1010.2
20260509225503 57 204 1.0 2.0 0.02 0.11 0.11 89 1011.1
20260509225003 57 238 0.0 0.0 0.01 0.10 0.10 89 1011.3
20260509224503 57 245 0.0 0.0 0.01 0.10 0.10 89 1011.0
20260509224004 57 228 0.0 0.0 0.01 0.10 0.10 89 1010.8
20260509223503 57 228 0.0 0.0 0.00 0.09 0.09 88 1010.7
20260509223003 57 222 1.0 2.0 0.00 0.09 0.09 88 1010.8
20260509222504 57 216 0.0 0.0 0.00 0.09 0.09 88 1010.9
20260509222003 57 240 0.0 0.0 0.00 0.09 0.09 88 1010.9
20260509220003 56 241 1.0 3.0 0.01 0.09 0.09 87 1010.9
20260509215004 56 226 1.0 3.0 0.01 0.09 0.09 86 1011.1
20260509214502 56 229 1.0 3.0 0.01 0.09 0.09 85 1011.2
20260509213502 56 164 1.0 3.0 0.01 0.09 0.09 84 1011.2
20260509213003 56 234 0.0 3.0 0.01 0.09 0.09 84 1011.3
20260509212504 56 233 0.0 2.0 0.01 0.09 0.09 84 1011.2
20260509212003 56 223 1.0 3.0 0.01 0.09 0.09 84 1011.2
20260509211002 57 249 1.0 5.0 0.02 0.09 0.09 83 1011.3
20260509210503 57 220 0.0 3.0 0.01 0.08 0.08 84 1011.2
20260509210003 57 187 1.0 3.0 0.02 0.08 0.08 83 1011.3
20260509205504 57 186 1.0 3.0 0.02 0.08 0.08 83 1011.2
20260509205004 57 188 1.0 3.0 0.02 0.08 0.08 83 1011.1
20260509204504 57 187 1.0 3.0 0.02 0.08 0.08 83 1011.0
20260509204004 57 190 1.0 3.0 0.02 0.08 0.08 83 1011.0
20260509203503 57 192 1.0 3.0 0.02 0.08 0.08 83 1011.0
20260509203003 57 187 1.0 3.0 0.03 0.08 0.08 83 1011.0
20260509202503 57 189 2.0 6.0 0.03 0.08 0.08 82 1011.1
20260509202003 58 188 3.0 9.0 0.03 0.08 0.08 83 1011.4
20260509201503 58 187 2.0 7.0 0.02 0.07 0.07 83 1011.2
20260509201003 58 187 2.0 7.0 0.03 0.07 0.07 83 1011.4
20260509200502 58 186 1.0 3.0 0.03 0.07 0.07 83 1011.4
20260509200003 58 187 3.0 9.0 0.02 0.06 0.06 83 1011.4
20260509195502 58 186 1.0 5.0 0.03 0.06 0.06 83 1011.3
20260509195003 58 186 1.0 5.0 0.03 0.06 0.06 83 1011.3
20260509194503 59 186 1.0 3.0 0.03 0.06 0.06 83 1011.3
20260509194003 58 196 1.0 3.0 0.03 0.06 0.06 82 1011.3
20260509193503 58 187 1.0 3.0 0.03 0.06 0.06 81 1011.3
20260509193002 58 186 2.0 5.0 0.02 0.05 0.05 80 1011.3
20260509192003 58 190 1.0 3.0 0.03 0.05 0.05 79 1011.5
20260509191503 58 185 1.0 6.0 0.03 0.05 0.05 77 1011.6
20260509191003 59 189 1.0 3.0 0.03 0.04 0.04 77 1011.7
20260509190502 59 192 2.0 3.0 0.03 0.04 0.04 77 1011.6
20260509190003 59 206 1.0 3.0 0.03 0.04 0.04 77 1011.5
20260509185504 59 217 1.0 3.0 0.03 0.03 0.03 77 1011.4
20260509185004 59 218 2.0 7.0 0.03 0.03 0.03 77 1011.5
20260509184504 60 188 1.0 3.0 0.03 0.03 0.03 76 1011.6
20260509184003 60 203 1.0 3.0 0.03 0.03 0.03 76 1011.5
20260509183003 60 209 2.0 8.0 0.03 0.03 0.03 75 1011.4
20260509182504 60 246 2.0 5.0 0.02 0.02 0.02 74 1011.3
20260509182003 60 234 3.0 8.0 0.02 0.02 0.02 73 1011.1
20260509181503 60 186 1.0 3.0 0.02 0.02 0.02 72 1011.4
20260509181004 61 234 2.0 5.0 0.01 0.01 0.01 71 1011.3
20260509180004 62 218 3.0 8.0 0.01 0.01 0.01 70 1011.3
20260509175503 63 228 4.0 9.0 0.00 0.00 0.00 69 1011.3
20260509175003 64 243 3.0 9.0 0.00 0.00 0.00 67 1011.1
20260509174502 64 208 3.0 9.0 0.00 0.00 0.00 65 1010.9
20260509174003 65 229 5.0 12.0 0.00 0.00 0.00 63 1011.1
20260509173504 66 222 5.0 9.0 0.00 0.00 0.00 62 1011.1
20260509173003 66 236 7.0 10.0 0.00 0.00 0.00 61 1010.9
20260509172503 66 232 4.0 9.0 0.00 0.00 0.00 62 1010.8
20260509172003 66 176 2.0 5.0 0.00 0.00 0.00 63 1010.7
20260509171503 66 236 4.0 7.0 0.00 0.00 0.00 62 1010.9
20260509170503 66 247 2.0 7.0 0.00 0.00 0.00 64 1010.9
20260509170003 65 211 3.0 6.0 0.00 0.00 0.00 64 1011.0
20260509165004 64 206 2.0 5.0 0.00 0.00 0.00 66 1011.2
20260509164504 64 235 3.0 7.0 0.00 0.00 0.00 65 1011.4
20260509164003 64 233 2.0 5.0 0.00 0.00 0.00 65 1011.4
20260509163503 64 234 3.0 7.0 0.00 0.00 0.00 64 1011.5
20260509163003 65 223 2.0 5.0 0.00 0.00 0.00 64 1011.5
20260509162504 65 233 1.0 3.0 0.00 0.00 0.00 65 1011.5
20260509161504 65 253 3.0 3.0 0.00 0.00 0.00 64 1011.7
20260509155504 65 201 3.0 5.0 0.00 0.00 0.00 65 1011.8
20260509155003 65 224 1.0 3.0 0.00 0.00 0.00 64 1011.8
20260509154503 65 216 2.0 5.0 0.00 0.00 0.00 65 1011.9
20260509154003 65 233 3.0 5.0 0.00 0.00 0.00 65 1012.0
20260509153503 65 239 2.0 6.0 0.00 0.00 0.00 64 1012.0
20260509153003 65 227 3.0 7.0 0.00 0.00 0.00 64 1012.0
20260509152503 65 158 2.0 6.0 0.00 0.00 0.00 63 1012.0
20260509152004 65 202 2.0 7.0 0.00 0.00 0.00 64 1012.0
20260509151003 64 222 5.0 9.0 0.00 0.00 0.00 63 1012.1
20260509150003 64 222 2.0 3.0 0.00 0.00 0.00 63 1012.2
20260509145502 64 207 2.0 5.0 0.00 0.00 0.00 63 1012.2
20260509145003 64 219 2.0 5.0 0.00 0.00 0.00 62 1012.3
20260509144503 64 226 2.0 5.0 0.00 0.00 0.00 63 1012.2
20260509144003 64 198 2.0 3.0 0.00 0.00 0.00 64 1012.2
20260509143503 63 196 2.0 5.0 0.00 0.00 0.00 65 1012.1
20260509143003 63 174 2.0 3.0 0.00 0.00 0.00 64 1012.1
20260509142503 63 212 2.0 5.0 0.00 0.00 0.00 63 1012.1
20260509142004 63 178 2.0 5.0 0.00 0.00 0.00 64 1012.1
20260509141503 63 192 2.0 5.0 0.00 0.00 0.00 64 1012.1
20260509141004 62 211 2.0 7.0 0.00 0.00 0.00 64 1012.1
20260509140503 62 158 1.0 5.0 0.00 0.00 0.00 65 1012.1
20260509140004 62 212 1.0 3.0 0.00 0.00 0.00 66 1012.1
20260509135503 61 176 1.0 3.0 0.00 0.00 0.00 66 1012.1
20260509135003 61 221 2.0 5.0 0.00 0.00 0.00 66 1012.2
20260509134503 61 190 1.0 3.0 0.00 0.00 0.00 67 1012.3
20260509134003 60 174 1.0 3.0 0.00 0.00 0.00 67 1012.3
20260509133005 60 196 1.0 6.0 0.00 0.00 0.00 68 1012.4
20260509132504 59 166 1.0 3.0 0.00 0.00 0.00 68 1012.3
20260509131503 59 196 1.0 3.0 0.00 0.00 0.00 68 1012.4
20260509131004 58 188 0.0 2.0 0.00 0.00 0.00 69 1012.5
20260509130004 58 226 1.0 3.0 0.00 0.00 0.00 70 1012.5
20260509125503 58 156 1.0 3.0 0.00 0.00 0.00 70 1012.5
20260509125004 58 196 1.0 3.0 0.00 0.00 0.00 71 1012.6
20260509124503 57 252 1.0 2.0 0.00 0.00 0.00 71 1012.5
20260509124003 57 181 1.0 2.0 0.00 0.00 0.00 72 1012.7
20260509123502 57 182 1.0 3.0 0.00 0.00 0.00 73 1012.7
20260509123003 56 218 1.0 3.0 0.00 0.00 0.00 73 1012.6
20260509122503 56 203 1.0 2.0 0.00 0.00 0.00 75 1012.6
20260509122003 56 221 0.0 3.0 0.00 0.00 0.00 75 1012.7
20260509120504 55 162 0.0 1.0 0.00 0.00 0.00 78 1012.7
20260509120003 55 161 0.0 2.0 0.00 0.00 0.00 78 1012.8
20260509115004 55 163 1.0 3.0 0.00 0.00 0.00 79 1012.8
20260509114004 54 163 0.0 0.0 0.00 0.00 0.00 79 1012.9
20260509113003 54 163 0.0 2.0 0.00 0.00 0.00 79 1012.8
20260509112504 54 165 0.0 0.0 0.00 0.00 0.00 80 1012.7
20260509112003 54 161 0.0 0.0 0.00 0.00 0.00 79 1012.8
20260509111503 54 161 0.0 0.0 0.00 0.00 0.00 79 1013.0
20260509111003 54 167 0.0 0.0 0.00 0.00 0.00 79 1012.9
20260509110003 53 177 0.0 0.0 0.00 0.00 0.00 79 1012.7
20260509105004 53 177 0.0 0.0 0.00 0.00 0.00 79 1012.6
20260509104504 53 177 0.0 0.0 0.00 0.00 0.00 79 1012.6
20260509104004 53 177 0.0 0.0 0.00 0.00 0.00 79 1012.5
20260509103504 53 177 0.0 0.0 0.00 0.00 0.00 78 1012.5
20260509102504 53 177 0.0 0.0 0.00 0.00 0.00 78 1012.4
20260509102004 53 177 0.0 0.0 0.00 0.00 0.00 78 1012.4
20260509101503 53 177 0.0 0.0 0.00 0.00 0.00 78 1012.4
20260509100504 53 155 0.0 0.0 0.00 0.00 0.00 78 1012.3
20260509095504 53 154 0.0 0.0 0.00 0.00 0.00 77 1012.2
20260509095003 53 196 0.0 0.0 0.00 0.00 0.00 77 1012.1
20260509094503 53 168 0.0 0.0 0.00 0.00 0.00 77 1012.4
20260509094003 53 168 0.0 0.0 0.00 0.00 0.00 77 1012.3
20260509093004 53 168 0.0 0.0 0.00 0.00 0.00 77 1012.3
20260509092503 53 168 0.0 0.0 0.00 0.00 0.00 77 1012.3
20260509091503 53 168 0.0 0.0 0.00 0.00 0.00 77 1012.2
20260509091003 53 168 0.0 0.0 0.00 0.00 0.00 77 1012.2
20260509085503 53 168 0.0 0.0 0.00 0.00 0.00 77 1012.1
20260509084004 53 169 0.0 0.0 0.00 0.00 0.00 77 1012.5
20260509083503 53 168 0.0 0.0 0.00 0.00 0.00 77 1012.5
20260509083003 53 168 0.0 1.0 0.00 0.00 0.00 77 1012.5
20260509082503 53 168 0.0 2.0 0.00 0.00 0.00 77 1012.5
20260509082003 53 169 0.0 0.0 0.00 0.00 0.00 76 1012.6
20260509081504 53 177 0.0 0.0 0.00 0.00 0.00 76 1012.5
20260509081004 53 177 0.0 0.0 0.00 0.00 0.00 76 1012.6
20260509080503 52 177 0.0 0.0 0.00 0.00 0.00 76 1012.6
20260509075503 53 164 0.0 0.0 0.00 0.00 0.00 75 1012.4
20260509074504 53 164 0.0 0.0 0.00 0.00 0.00 75 1012.3
20260509074003 53 164 0.0 0.0 0.00 0.00 0.00 75 1012.3
20260509073003 53 164 0.0 0.0 0.00 0.00 0.00 75 1012.3
20260509072004 53 164 0.0 0.0 0.00 0.00 0.00 75 1012.3
20260509070504 52 164 0.0 0.0 0.00 0.01 0.00 74 1012.3
20260509070003 52 164 0.0 0.0 0.00 0.01 0.00 74 1012.5
20260509065503 52 164 0.0 0.0 0.00 0.01 0.00 74 1012.5
20260509065003 52 164 0.0 0.0 0.00 0.01 0.00 73 1012.5
20260509064503 52 164 0.0 0.0 0.00 0.01 0.00 73 1012.5
20260509063003 52 187 0.0 0.0 0.00 0.01 0.00 73 1013.0
20260509062513 52 181 0.0 0.0 0.00 0.01 0.00 72 1013.1
20260509062005 52 186 0.0 0.0 0.00 0.01 0.00 73 1013.1
20260509061005 52 182 0.0 1.0 0.00 0.01 0.00 72 1013.0
20260509060503 52 172 0.0 1.0 0.00 0.01 0.00 72 1012.9
20260509055003 52 177 0.0 3.0 0.00 0.01 0.00 72 1013.1
20260509054504 52 182 0.0 0.0 0.00 0.01 0.00 72 1013.0
20260509054003 52 182 0.0 0.0 0.00 0.01 0.00 72 1012.9
20260509053503 52 182 0.0 0.0 0.00 0.01 0.00 71 1012.8
20260509053003 52 182 0.0 0.0 0.00 0.01 0.00 71 1012.8
20260509052504 52 182 0.0 0.0 0.00 0.01 0.00 71 1012.8
20260509052004 52 182 0.0 0.0 0.00 0.01 0.00 71 1012.8
20260509051503 52 182 0.0 0.0 0.00 0.01 0.00 71 1012.8
20260509051003 52 182 0.0 0.0 0.00 0.01 0.00 71 1012.9
20260509050503 52 182 0.0 0.0 0.00 0.01 0.00 70 1012.8
20260509050004 52 182 0.0 0.0 0.00 0.01 0.00 70 1012.9
20260509045503 53 182 0.0 0.0 0.00 0.01 0.00 70 1012.9
20260509045003 53 182 0.0 0.0 0.00 0.01 0.00 70 1013.0
20260509044004 53 182 0.0 0.0 0.00 0.01 0.00 69 1012.9
20260509043005 53 182 0.0 0.0 0.00 0.01 0.00 69 1012.8
20260509042503 53 182 0.0 0.0 0.00 0.01 0.00 69 1012.8
20260509042004 54 182 0.0 0.0 0.00 0.01 0.00 69 1012.8
20260509041005 54 182 0.0 0.0 0.00 0.01 0.00 69 1012.9
20260509040504 54 182 0.0 1.0 0.00 0.01 0.00 69 1013.0
20260509040003 54 182 0.0 1.0 0.00 0.01 0.00 69 1013.0
20260509034003 54 182 0.0 2.0 0.00 0.01 0.01 69 1013.1
20260509033004 54 194 0.0 0.0 0.00 0.01 0.01 69 1013.2
20260509032503 54 194 0.0 1.0 0.00 0.01 0.01 69 1013.2
20260509032003 54 194 0.0 1.0 0.00 0.01 0.01 69 1013.2
20260509031503 54 194 0.0 1.0 0.00 0.01 0.01 69 1013.2
20260509031003 54 172 0.0 1.0 0.00 0.01 0.01 69 1013.2
20260509025503 54 172 0.0 2.0 0.00 0.01 0.01 69 1013.1
20260509024503 54 161 0.0 1.0 0.00 0.01 0.01 69 1013.1